Cienfuegos, Cuba

6:04 AM CST on December 16, 2019 (GMT -0500)
Jaime Gonzalez

Weather History for MUCF - October, 2019

Change the Weather History Date:

Sunday, October 6, 2019

  Actual Average (WUND) Record (WUND)
Temperature  
Mean Temperature 80 °F -  
Max Temperature 86 °F - - (-1)
Min Temperature 75 °F - - (-1)
Cooling Degree Days 16    
Growing Degree Days 30 (Base 50)    
Moisture  
Dew Point 76 °F    
Average Humidity 89    
Maximum Humidity 100    
Minimum Humidity 74    
Precipitation  
Precipitation 0.00 in - - ()
Sea Level Pressure  
Sea Level Pressure 29.85 in    
Wind  
Wind Speed 5 mph ()    
Max Wind Speed 10 mph    
Max Gust Speed -    
Visibility 6.2 miles    
Events      
Averages and records for this station are not official NWS values.
T = Trace of Precipitation, MM = Missing Value Source: Averaged Metar Reports

Daily Weather History Graph

Daily Weather History Graph

Search for Another Location

Airport or City:

Astronomy

Oct. 06, 2019 Rise Set
Actual Time 7:14 AM CDT 7:04 PM CDT
Civil Twilight 6:52 AM CDT 7:27 PM CDT
Nautical Twilight 6:26 AM CDT 7:52 PM CDT
Astronomical Twilight 6:00 AM CDT 8:18 PM CDT
Moon 2:50 PM CDT (10/6) 1:04 AM CDT (10/6)
Length of Visible Light 12h 34m
Length of Day
11h 50m
First Quarter, 59% of the Moon is Illuminated
Oct 6
First Quarter
Oct 13
Full
Oct 21
Last Quarter
Oct 27
New
Nov 4
First Quarter

Hourly Weather History & Observations

Time (CDT) Temp. Heat Index Dew Point Humidity Pressure Visibility Wind Dir Wind Speed Gust Speed Precip Events Conditions
12:59 AM 75.2 °F - 75.2 °F 100% 29.86 in - NE 5.8 mph - N/A   Unknown
1:59 AM 75.2 °F - 73.4 °F 94% 29.86 in - NE 4.6 mph - N/A   Unknown
2:59 AM 75.2 °F - 75.2 °F 100% 29.83 in - NE 4.6 mph - N/A   Unknown
3:59 AM 75.2 °F - 73.4 °F 94% 29.83 in - NNE 5.8 mph - N/A   Unknown
4:59 AM 75.2 °F - 75.2 °F 100% 29.83 in - ENE 5.8 mph - N/A   Unknown
5:59 AM 75.2 °F - 73.4 °F 94% 29.83 in - NE 6.9 mph - N/A   Unknown
6:59 AM 75.2 °F - 73.4 °F 94% 29.86 in - NE 5.8 mph - N/A   Unknown
7:59 AM 75.2 °F - 73.4 °F 94% 29.86 in - NE 5.8 mph - N/A   Unknown
8:50 AM 77.0 °F - 75.2 °F 94% 29.89 in 6.2 mi NE 5.8 mph - N/A   Mostly Cloudy
9:51 AM 80.6 °F 87.1 °F 77.0 °F 89% 29.89 in 6.2 mi ENE 8.1 mph - N/A   Mostly Cloudy
10:50 AM 84.2 °F 94.1 °F 77.0 °F 79% 29.89 in 6.2 mi East 6.9 mph - N/A   Mostly Cloudy
11:51 AM 86.0 °F 96.9 °F 77.0 °F 74% 29.89 in 6.2 mi East 8.1 mph - N/A   Mostly Cloudy
12:54 PM 86.0 °F 96.9 °F 77.0 °F 74% 29.86 in 6.2 mi East 8.1 mph - N/A   Mostly Cloudy
1:51 PM 86.0 °F 96.9 °F 77.0 °F 74% 29.86 in 6.2 mi SW 9.2 mph - N/A   Mostly Cloudy
2:51 PM 86.0 °F 99.3 °F 78.8 °F 79% 29.83 in 6.2 mi SW 10.4 mph - N/A   Scattered Clouds
3:51 PM 86.0 °F 96.9 °F 77.0 °F 74% 29.80 in 6.2 mi SSW 9.2 mph - N/A   Mostly Cloudy
4:59 PM 86.0 °F 96.9 °F 77.0 °F 74% 29.80 in - SSW 6.9 mph - N/A   Unknown
5:59 PM 80.6 °F 86.2 °F 75.2 °F 84% 29.83 in - Variable 2.3 mph - N/A   Unknown
6:59 PM 77.0 °F - 75.2 °F 94% 29.83 in - East 6.9 mph - N/A   Unknown
7:59 PM 75.2 °F - 75.2 °F 100% 29.83 in - ENE 3.5 mph - N/A   Unknown
8:59 PM 77.0 °F - 75.2 °F 94% 29.86 in - East 4.6 mph - N/A   Unknown
9:59 PM 77.0 °F - 75.2 °F 94% 29.89 in - East 4.6 mph - N/A   Unknown
10:59 PM 75.2 °F - 75.2 °F 100% 29.89 in - South 5.8 mph - N/A   Unknown
11:59 PM 75.2 °F - 75.2 °F 100% 29.89 in - South 4.6 mph - N/A   Unknown